ASNARO

Last updated on Mon Sep 07 2026 00:02:45 GMT+0000 (Coordinated Universal Time)

1 40298U 14070A 26249.61503184 .00007151 00000+0 33892-3 0 9997 2 40298 97.3392 323.5114 0003357 218.2698 141.8299 15.19598724656373
UTC large
Height (km)
Speed (km/s)
/
Latitude / Longitude
Inclination (degrees)
Orbital Period (minutes)
Azimuth
Elevation
Range (km)
Doppler Factor

Next 0 passes for location: London (51.5072 / 0.1276)

No passes found over London.
ASNARO